Home > Weather > Eferding > Past weeks

Flag for Austria Past Weather in Eferding, Upper Austria, Austria — Yesterday and Last 2 Weeks

Now
63 °F

Partly sunny.


Feels Like: 63 °F
Forecast: 64 / 77 °F
Wind: N/A

Location: Linz / Hoersching-Flughafen

Current Time: Jul 27, 2016 at 7:56:10 AM

Latest Report: Jul 27, 2016 at 7:00 AM


Visibility: 4 mi

Pressure: 30.06 "Hg

Humidity: 95%

Dew Point: 61 °F

Location of EferdingLocation

Past Weather in Eferding — Graph

°F

Eferding Temperature Yesterday

Maximum temperature yesterday: 82 °F (at 5:00 PM)
Minimum temperature yesterday: 64 °F (at 3:00 AM)
Average temperature yesterday: 72 °F

High & Low Weather Summary for the Past Weeks

 TemperatureHumidityPressure
High85 °F (Jul 23, 5:00 PM)97% (Jul 18, 1:00 AM)30.30 "Hg (Jul 18, 1:00 AM)
Low51 °F (Jul 15, 4:00 AM)36% (Jul 20, 5:00 PM)29.82 "Hg (Jul 12, 7:00 PM)
Average68 °F77%30.05 "Hg
* Reported Jul 12 6:00 AM — Jul 27 6:00 AM, Eferding, Weather by CustomWeather, © 2016

Note: Actual official high and low records may vary slightly from our data, if they occured in-between our weather recording intervals... More about our weather records

Advertising

Eferding Weather History for the Previous 24 Hours

Scroll right to see more
 ConditionsComfort  
Time TempWeatherWind HumidityBarometerVisibility
6:00 AM
Wed, Jul 27
62 °FScattered clouds.N/A93%30.06 "Hg4 mi
5:00 AM63 °FPassing clouds.N/A94%30.06 "Hg5 mi
4:00 AM63 °FPassing clouds.N/A93%30.06 "Hg6 mi
3:00 AM64 °FPassing clouds.N/A93%30.06 "Hg7 mi
2:00 AM65 °FPassing clouds.N/A89%30.08 "Hg7 mi
1:00 AM66 °FPassing clouds.N/A88%30.08 "Hg9 mi
12:00 AM68 °FOvercast.5 mph84%30.08 "Hg11 mi
11:00 PM
Tue, Jul 26
68 °FLow clouds.N/A83%30.07 "Hg14 mi
10:00 PM69 °FLow clouds.N/A78%30.07 "Hg22 mi
9:00 PM71 °FThundershowers. Low clouds.N/A73%30.05 "Hg19 mi
8:00 PM76 °FOvercast.N/A71%30.03 "Hg16 mi
7:00 PM77 °FPartly sunny.5 mph66%30.00 "Hg18 mi
6:00 PM80 °FScattered clouds.5 mph58%29.99 "Hg15 mi
5:00 PM82 °FScattered clouds.N/A57%29.99 "Hg17 mi
4:00 PM80 °FScattered clouds.3 mph58%30.00 "Hg10 mi
3:00 PM78 °FScattered clouds.5 mph67%30.02 "Hg14 mi
2:00 PM75 °FPartly sunny.7 mph74%30.04 "Hg12 mi
1:00 PM79 °FPartly sunny.N/A66%30.03 "Hg15 mi
12:00 PM76 °FPartly sunny.N/A68%30.06 "Hg13 mi
11:00 AM74 °FPartly sunny.3 mph74%30.07 "Hg12 mi
10:00 AM72 °FOvercast.N/A81%30.07 "Hg11 mi
9:00 AM71 °FOvercast.5 mph82%30.08 "Hg8 mi
8:00 AM69 °FLow clouds.N/A90%30.08 "Hg6 mi
7:00 AM67 °FLow clouds.N/A93%30.08 "Hg5 mi
Weather by CustomWeather, © 2016

See weather overviewHow to use our weather pages